Temperature
10 11 12 12 12 12 12 12 12 12 12 14 13 13 14 16 16 16 16 17 17 17 16 16 15 15 14 14 13 12 12 12 11 11 10 9 9 9 8 8 8 8 8 7
10 11 11 12 12 12 13 13 12 12 12 13 14 14 14 15 15 15 16 17 17 17 16 16 15 15 14 13 13 12 12 11 11 10 9 9 9 8 8 8 8 7 7 7
9 10 10 11 12 13 12 13 13 13 14 13 13 12 13 15 16 16 17 17 17 17 16 16 16 15 14 14 13 12 11 11 10 10 9 9 8 8 8 7 7 7 7 6
8 9 9 11 12 13 13 13 13 13 13 13 14 16 17 18 17 17 18 17 17 17 16 16 15 14 14 13 12 11 11 10 10 9 9 8 8 7 7 7 7 6 6 6
8 9 9 10 11 12 12 12 13 13 13 13 15 14 15 17 18 18 18 18 17 17 16 16 15 14 13 12 12 11 11 10 9 9 8 8 7 7 7 6 6 6 5 5
7 8 9 11 12 12 12 12 13 13 13 12 12 12 13 17 17 17 17 17 17 16 15 15 14 14 13 12 12 11 10 10 9 8 8 7 7 6 6 6 5 5 4 4
7 8 9 11 11 12 11 12 13 13 14 13 12 15 16 17 17 17 17 16 16 15 15 14 14 13 13 12 11 11 10 9 8 8 7 7 6 6 5 5 4 4 4 3
7 7 9 10 10 12 12 14 15 15 15 14 15 16 16 16 16 16 16 15 15 15 14 14 13 13 12 11 11 10 9 9 8 7 7 6 5 5 4 4 4 3 3 3
8 9 10 11 11 13 15 15 15 16 16 15 15 15 15 16 16 15 15 15 14 14 13 13 12 12 11 11 10 9 9 8 7 7 6 5 5 4 4 3 3 2 2 2
7 8 10 11 12 13 14 15 16 16 16 16 15 15 15 15 15 14 14 14 13 13 12 12 11 11 10 10 9 9 8 7 7 6 5 4 4 3 3 3 2 2 1 1
7 8 9 11 12 14 14 15 15 15 16 16 16 15 15 15 14 14 14 13 12 12 12 11 11 10 9 9 9 8 7 6 6 5 4 4 3 3 2 2 2 1 1 -0
8 9 9 10 13 13 14 14 15 15 15 15 16 16 15 14 14 13 13 12 12 11 11 11 10 9 9 8 8 7 6 6 5 4 4 3 3 2 2 1 1 0 -0 -1
10 11 11 12 13 13 14 14 14 15 15 15 15 15 15 14 13 13 12 12 11 11 10 10 9 9 8 7 7 6 6 5 4 4 3 3 2 2 1 1 0 -0 -1 -2
10 11 10 11 12 13 14 14 14 14 14 15 15 14 14 13 12 12 12 11 11 10 10 9 9 8 7 7 6 5 5 4 4 3 2 2 2 1 1 0 -0 -1 -2 -3
10 11 11 12 12 13 13 13 13 13 13 13 14 14 14 13 12 11 11 10 10 9 9 8 8 7 6 6 5 4 4 3 3 2 2 1 1 0 -0 -1 -2 -2 -3 -4
9 10 11 12 12 12 12 12 13 13 13 13 13 13 13 12 12 11 10 9 9 9 8 8 7 6 5 5 4 4 3 3 2 2 1 1 0 -1 -1 -2 -3 -3 -4 -5
9 9 9 10 11 12 12 13 13 13 13 13 13 13 12 11 10 9 9 8 8 8 8 7 6 5 4 4 3 3 2 2 1 1 0 -0 -1 -2 -2 -3 -4 -4 -5 -6
10 11 11 12 12 12 12 12 13 13 13 13 12 12 11 10 10 9 8 7 7 6 6 5 5 4 3 3 2 2 2 1 1 0 -0 -1 -2 -2 -3 -4 -5 -5 -6 -6
9 10 11 11 12 12 12 12 12 12 12 12 12 11 11 10 9 8 7 7 6 6 5 4 4 3 3 2 2 1 1 0 -0 -1 -1 -2 -3 -3 -4 -5 -5 -6 -7 -7
9 10 10 10 11 11 11 12 12 12 11 11 10 10 9 8 8 7 6 6 6 5 4 3 3 2 2 1 1 0 0 -0 -1 -1 -2 -3 -3 -4 -5 -5 -6 -6 -7 -8
9 10 10 10 10 10 11 11 11 11 10 10 10 9 8 7 6 6 5 4 4 3 3 2 2 1 1 0 0 -0 -1 -1 -2 -2 -3 -4 -4 -5 -5 -6 -7 -7 -8 -8
9 9 9 9 9 10 10 10 10 10 9 9 8 8 7 6 5 4 4 4 3 2 2 1 1 0 0 -0 -1 -1 -2 -2 -3 -3 -4 -4 -5 -5 -6 -7 -7 -8 -8 -9
8 8 8 9 9 9 9 8 8 8 8 8 7 6 6 5 4 4 3 2 2 1 1 0 -0 -0 -1 -1 -2 -2 -2 -3 -3 -4 -4 -5 -5 -6 -7 -7 -8 -8 -8 -9
7 7 8 8 8 8 7 6 6 6 6 5 5 5 4 4 2 2 2 1 1 0 -0 -1 -1 -1 -2 -2 -2 -3 -3 -4 -4 -5 -5 -6 -6 -7 -7 -7 -8 -8 -9 -9
6 6 6 6 6 5 5 4 4 3 3 3 2 2 2 2 2 1 1 0 -0 -1 -1 -1 -2 -2 -2 -3 -3 -3 -4 -4 -5 -5 -6 -6 -7 -7 -8 -8 -8 -9 -9 -9
3 3 3 4 4 4 3 2 2 1 1 1 0 0 0 0 0 -0 -1 -1 -1 -2 -2 -2 -3 -3 -3 -3 -4 -4 -5 -5 -6 -6 -7 -7 -7 -8 -8 -8 -9 -9 -9 -9
0 0 0 -0 -0 0 0 0 0 -0 -0 0 -1 -1 -1 -1 -1 -1 -2 -2 -2 -3 -3 -3 -3 -4 -4 -4 -5 -5 -6 -6 -6 -7 -7 -7 -8 -8 -8 -9 -9 -9 -9 -9
Wind_Speed
6 5 10 10 14 17 18 17 14 14 14 11 11 11 11 10 9 8 8 9 10 10 9 8 9 9 9 8 8 9 9 9 9 8 7 7 7 7 7 8 8 8 7 7
8 7 9 9 16 20 22 20 16 11 13 10 9 8 8 9 10 11 11 11 11 11 10 10 10 10 9 9 9 9 9 9 7 7 7 7 7 7 7 7 6 6 7 7
9 7 4 13 19 22 18 16 18 21 20 7 9 12 13 13 12 13 13 12 12 12 12 11 11 11 11 10 9 9 9 8 8 8 8 7 7 7 7 7 6 6 6 6
5 7 12 12 10 13 18 17 19 17 12 13 15 14 12 13 14 14 13 12 12 11 10 9 8 8 8 8 9 9 8 8 8 8 8 7 7 7 6 5 5 5 5 5
5 9 9 8 8 14 16 18 18 19 15 12 10 6 8 11 12 14 14 12 11 10 9 9 9 10 10 9 9 9 9 8 8 8 8 7 7 6 4 4 4 4 4 4
5 7 12 10 7 8 9 14 15 18 18 14 11 10 12 9 10 10 9 9 9 8 8 9 9 10 11 10 9 9 9 8 8 8 8 8 7 5 4 4 4 4 3 3
8 7 9 8 6 12 12 13 9 17 18 16 17 16 9 10 9 9 9 9 10 10 9 9 10 11 11 9 9 8 8 8 7 7 7 7 6 4 5 4 4 3 2 1
9 8 10 5 9 13 8 4 5 10 14 15 15 10 9 11 10 11 10 9 10 10 9 8 10 12 11 9 7 8 9 8 7 7 6 6 6 5 5 5 4 2 1 1
9 9 5 5 8 7 4 5 5 6 7 10 10 9 9 10 11 11 11 11 9 11 10 8 8 10 11 8 9 10 9 8 7 7 6 6 6 6 4 4 3 2 1 2
5 8 8 7 7 5 5 5 5 4 5 9 10 11 11 11 11 11 10 10 10 12 12 9 7 8 9 10 10 10 10 8 7 7 6 5 4 4 4 3 3 2 2 2
7 8 7 9 9 7 5 2 1 2 4 9 12 11 11 12 12 11 10 9 10 12 12 10 9 9 9 10 11 10 9 8 7 6 6 5 4 3 3 3 3 3 3 2
9 8 7 10 10 7 6 6 6 5 4 6 10 13 12 11 11 11 12 11 11 11 11 10 10 10 9 9 11 11 9 7 6 5 5 4 4 3 3 2 1 1 1 2
11 10 10 11 9 9 8 8 7 7 8 7 8 11 13 10 10 11 12 12 13 12 12 11 11 10 8 9 10 10 9 7 6 5 5 4 3 3 1 3 4 4 4 5
9 7 8 10 10 10 8 7 5 4 4 7 9 10 12 10 11 12 13 12 12 12 12 11 11 9 8 9 10 9 8 8 7 5 4 4 3 2 2 1 1 3 4 6
12 11 10 9 7 6 5 5 6 6 6 7 9 12 13 14 14 12 11 12 13 12 11 11 11 9 8 9 10 9 8 6 5 5 4 3 3 2 1 1 1 2 3 4
9 7 6 8 9 8 7 8 9 10 9 10 10 11 11 12 12 12 12 14 15 14 13 12 11 9 9 10 10 8 6 9 7 5 4 3 2 2 1 1 1 2 3 4
9 9 9 8 10 10 10 10 11 12 11 12 12 13 13 14 13 12 11 9 10 11 11 12 11 9 9 10 10 7 6 6 8 5 3 3 2 2 1 1 2 2 3 5
14 14 13 12 12 11 10 8 9 11 11 11 14 15 15 16 15 14 13 13 13 11 9 9 10 10 9 9 8 7 6 5 4 4 3 2 2 2 1 1 2 3 4 5
13 13 12 11 11 11 11 10 10 10 12 14 15 14 13 12 13 14 14 15 15 12 8 9 15 11 9 9 9 6 6 5 4 3 2 2 2 1 1 1 2 3 4 4
14 12 11 10 9 9 10 10 11 12 12 14 15 14 13 13 14 14 13 10 7 8 11 12 12 10 9 9 9 6 6 5 4 3 2 2 1 1 1 2 3 3 4 4
13 12 11 10 9 8 10 13 14 14 13 14 16 16 15 14 13 13 14 10 7 10 12 15 10 8 7 8 9 6 5 5 4 3 2 2 1 1 2 2 3 4 4 4
10 10 11 11 11 10 9 10 12 15 15 14 15 16 17 15 14 11 9 9 11 14 10 8 7 9 10 10 6 6 5 4 3 3 2 1 1 2 2 3 4 4 4 5
9 10 11 12 13 13 11 11 12 14 15 16 17 17 16 14 12 13 11 8 10 14 10 8 11 13 13 8 6 5 5 4 3 2 2 2 2 2 3 4 4 4 5 5
9 10 11 13 14 15 14 12 12 12 13 13 13 13 15 13 10 7 10 16 16 15 9 11 14 13 11 6 5 5 4 3 2 2 1 1 2 2 3 4 4 5 5 6
11 12 14 15 14 13 14 15 16 15 15 13 13 12 9 8 10 12 11 12 17 15 9 11 13 12 8 5 5 4 3 2 2 2 2 2 2 3 4 4 5 5 6 6
10 10 10 10 11 12 12 13 13 12 13 14 12 10 11 11 13 12 11 11 13 13 9 7 7 7 5 4 4 3 2 1 0 0 2 2 3 4 4 5 6 6 6 7
12 11 11 11 10 10 11 12 13 13 12 14 14 11 12 11 11 11 11 10 9 8 7 6 5 5 4 3 3 2 2 1 1 2 2 3 3 4 5 6 6 6 6 7
Wind_Direction
233 200 174 196 200 196 203 205 205 218 215 217 213 206 204 202 195 190 195 196 195 195 197 194 191 190 186 184 179 173 171 177 184 179 171 167 168 171 171 174 179 179 180 186
224 211 195 206 209 207 213 213 218 224 232 221 218 212 212 207 195 197 204 205 201 196 192 193 191 188 183 181 177 169 173 178 170 162 161 166 168 165 165 169 169 170 181 187
213 209 194 227 211 206 213 215 210 224 230 194 202 207 210 209 202 203 206 203 197 196 196 194 191 183 181 176 164 164 169 167 163 162 164 167 163 161 168 171 169 176 184 188
186 179 215 232 203 200 211 219 213 219 219 203 213 216 215 205 200 206 204 199 197 193 190 187 178 170 162 152 155 159 161 162 161 162 164 161 159 166 167 164 172 179 186 193
184 202 239 267 210 192 201 228 218 220 220 211 203 205 238 221 205 203 200 193 191 186 179 169 164 158 147 148 152 156 162 164 163 160 158 157 162 165 160 158 168 177 183 189
183 197 222 228 201 181 179 242 222 211 217 206 171 210 234 207 195 196 185 175 168 159 151 153 157 148 146 152 156 166 167 161 155 154 156 161 163 157 149 156 165 164 176 190
200 215 246 238 184 143 183 232 213 203 210 195 198 217 206 170 176 174 167 160 152 146 150 156 149 144 147 152 165 160 142 137 139 145 149 149 143 139 138 135 134 145 171 210
189 206 236 220 151 179 214 219 206 200 203 197 205 202 172 166 165 157 150 145 143 140 139 139 143 143 145 154 147 130 128 129 131 132 132 131 129 126 128 130 132 140 154 281
203 219 247 206 208 225 200 205 212 202 200 184 181 181 171 166 159 156 151 146 140 137 132 132 142 144 146 146 135 128 125 126 124 119 114 123 130 129 123 124 135 154 178 250
232 245 251 251 261 246 220 220 214 196 183 168 170 167 160 155 153 150 145 143 139 137 138 140 138 133 136 137 133 128 128 126 124 121 114 110 114 128 134 145 152 174 214 248
241 258 262 253 235 227 227 230 183 161 176 172 156 158 159 157 157 154 147 143 144 146 146 144 137 130 131 134 130 126 125 124 121 119 122 116 110 125 142 173 178 186 214 222
230 230 228 248 246 230 208 210 195 171 161 169 163 159 156 157 156 153 149 145 142 141 140 139 136 132 133 134 133 132 131 130 128 125 121 120 116 78 53 66 61 22 333 300
234 243 244 255 246 227 217 211 199 186 177 175 167 155 152 150 151 148 148 149 150 148 143 139 135 134 135 133 131 133 136 135 130 129 131 130 127 126 85 20 26 14 353 334
236 232 249 247 238 226 216 205 184 175 176 165 153 145 143 139 144 151 157 154 143 138 137 137 134 136 137 131 127 126 127 131 133 133 133 133 136 139 150 176 317 326 339 336
239 232 233 236 230 219 196 166 158 170 164 152 147 148 150 153 157 156 145 136 132 132 136 136 135 136 133 129 128 129 128 129 127 126 127 131 132 133 146 187 259 291 310 320
236 237 224 213 207 197 183 179 179 184 175 163 157 155 152 146 139 135 139 144 145 148 147 142 140 139 133 128 125 124 125 130 129 127 127 129 133 142 167 231 269 284 290 294
210 219 216 209 205 203 200 195 187 181 172 165 158 143 133 130 130 135 137 135 132 133 137 138 136 131 128 128 127 128 124 127 125 122 131 142 151 169 196 229 259 274 280 297
220 218 210 201 196 199 199 190 177 167 163 156 142 140 145 149 151 147 137 125 116 111 115 125 128 125 122 123 123 126 126 127 130 135 141 151 160 167 181 232 265 276 283 298
225 218 211 206 200 192 187 182 171 158 147 144 147 150 148 142 138 137 135 134 136 137 139 135 133 125 124 129 126 123 127 128 127 130 139 141 115 126 195 251 269 278 285 291
219 213 203 197 186 179 176 164 151 145 145 143 137 132 131 133 135 134 131 126 130 136 137 133 126 124 125 131 126 125 129 132 135 138 137 140 157 200 239 261 270 277 281 283
207 198 186 179 174 165 160 152 148 146 145 144 143 142 138 134 133 133 130 124 119 126 132 132 127 128 130 133 126 126 129 132 136 141 147 160 186 234 261 273 281 286 286 286
189 180 173 163 151 141 137 136 138 138 136 133 130 130 131 132 128 117 109 128 136 134 128 126 128 136 139 130 123 127 130 133 137 142 155 180 213 246 266 276 280 285 286 285
165 159 152 146 139 128 116 119 127 133 135 137 138 139 138 136 136 134 128 131 133 132 127 129 138 137 131 121 123 125 127 131 138 152 174 202 229 250 265 276 280 285 285 286
132 129 126 122 120 119 119 117 114 114 115 117 121 126 129 126 112 100 119 134 136 128 125 134 135 132 124 119 122 124 128 135 149 167 194 224 244 257 266 274 278 280 280 284
117 119 122 125 125 125 123 119 113 111 110 109 106 104 105 112 121 124 124 129 131 124 120 127 128 124 119 121 125 129 137 155 171 180 200 232 250 260 266 269 272 279 283 284
110 114 115 115 121 127 130 128 126 126 124 119 112 108 106 107 113 117 118 119 121 121 118 115 118 119 120 125 129 135 145 155 108 227 237 252 259 265 269 274 278 278 280 281
101 104 106 105 107 115 120 123 126 127 127 126 122 118 116 116 117 118 118 118 117 116 117 118 120 123 127 130 135 147 167 192 217 236 250 257 262 265 269 273 275 277 279 281
Height
1402 1400 1401 1404 1407 1411 1413 1414 1423 1420 1420 1414 1412 1412 1412 1414 1417 1420 1422 1425 1427 1429 1431 1433 1436 1438 1440 1443 1446 1448 1451 1454 1457 1460 1463 1466 1469 1472 1475 1477 1479 1482 1483 1485
1400 1398 1397 1399 1399 1402 1403 1405 1410 1412 1411 1405 1405 1408 1410 1412 1414 1416 1418 1420 1423 1426 1428 1430 1432 1434 1437 1440 1442 1445 1448 1451 1454 1457 1460 1463 1466 1468 1471 1473 1475 1477 1479 1480
1400 1398 1399 1399 1388 1391 1394 1394 1399 1402 1397 1401 1403 1404 1405 1407 1409 1411 1413 1416 1419 1421 1424 1426 1429 1431 1434 1437 1440 1442 1445 1448 1451 1454 1457 1459 1462 1465 1467 1469 1471 1473 1475 1476
1398 1400 1401 1381 1375 1379 1384 1384 1386 1387 1388 1392 1394 1396 1398 1400 1403 1406 1409 1412 1415 1418 1420 1423 1426 1429 1432 1434 1437 1440 1442 1445 1448 1451 1454 1456 1459 1461 1463 1465 1467 1469 1470 1471
1396 1393 1388 1378 1372 1373 1378 1378 1376 1379 1381 1385 1388 1392 1393 1394 1397 1400 1403 1407 1410 1413 1417 1420 1422 1425 1428 1431 1434 1437 1440 1442 1445 1448 1451 1453 1455 1458 1460 1462 1463 1465 1466 1467
1393 1390 1383 1367 1363 1364 1373 1375 1365 1369 1373 1378 1384 1392 1385 1387 1392 1395 1399 1402 1406 1410 1413 1416 1419 1422 1425 1428 1431 1434 1437 1440 1443 1445 1448 1450 1452 1454 1456 1458 1459 1461 1462 1463
1386 1383 1371 1359 1356 1361 1376 1363 1355 1358 1362 1368 1373 1372 1376 1382 1386 1390 1394 1398 1402 1406 1409 1413 1416 1419 1422 1425 1428 1432 1435 1438 1440 1443 1445 1447 1449 1451 1453 1454 1456 1457 1458 1459
1376 1377 1368 1351 1354 1356 1353 1351 1350 1351 1353 1358 1361 1365 1371 1376 1380 1385 1389 1394 1398 1402 1406 1410 1413 1417 1420 1423 1427 1430 1433 1435 1438 1440 1442 1444 1446 1448 1449 1451 1452 1453 1454 1454
1359 1355 1347 1345 1345 1345 1347 1347 1347 1348 1349 1353 1356 1360 1365 1370 1375 1380 1385 1390 1394 1399 1403 1407 1411 1415 1418 1422 1425 1428 1431 1433 1436 1438 1440 1442 1444 1445 1446 1447 1448 1449 1449 1449
1355 1348 1344 1342 1341 1342 1344 1345 1345 1346 1348 1350 1353 1356 1361 1366 1371 1377 1382 1387 1391 1396 1400 1405 1409 1413 1417 1420 1423 1426 1429 1431 1434 1436 1438 1440 1441 1442 1443 1444 1444 1445 1445 1444
1350 1344 1341 1338 1339 1340 1342 1343 1344 1345 1347 1348 1351 1354 1358 1363 1368 1374 1379 1384 1389 1394 1398 1403 1407 1411 1415 1419 1422 1424 1427 1429 1432 1434 1435 1437 1439 1440 1440 1441 1441 1441 1441 1440
1342 1338 1339 1335 1335 1338 1339 1341 1342 1344 1346 1348 1350 1353 1357 1361 1367 1372 1377 1382 1387 1392 1397 1402 1406 1410 1414 1417 1420 1423 1425 1427 1429 1431 1433 1435 1436 1437 1437 1438 1438 1437 1436 1435
1333 1333 1333 1332 1333 1335 1337 1338 1340 1342 1344 1346 1349 1352 1356 1360 1365 1370 1375 1380 1385 1390 1396 1400 1404 1408 1412 1415 1418 1421 1423 1425 1427 1429 1431 1432 1433 1433 1434 1434 1434 1433 1432 1430
1327 1329 1328 1328 1329 1331 1333 1335 1338 1340 1342 1344 1347 1351 1355 1359 1364 1369 1373 1379 1384 1390 1394 1399 1403 1407 1410 1413 1416 1419 1421 1423 1425 1427 1428 1429 1430 1430 1430 1429 1429 1428 1427 1425
1320 1322 1322 1323 1324 1326 1328 1331 1334 1336 1339 1342 1346 1349 1353 1357 1361 1367 1372 1378 1383 1388 1393 1397 1401 1405 1408 1412 1415 1417 1419 1421 1423 1424 1425 1426 1426 1426 1426 1425 1424 1422 1421 1419
1313 1315 1316 1318 1319 1321 1323 1327 1329 1332 1335 1339 1343 1347 1351 1355 1360 1365 1371 1376 1380 1385 1390 1395 1399 1403 1406 1410 1413 1415 1417 1419 1420 1421 1422 1422 1423 1422 1422 1420 1419 1417 1415 1413
1308 1309 1310 1312 1314 1316 1318 1321 1324 1327 1331 1335 1339 1344 1349 1353 1359 1364 1369 1375 1380 1385 1389 1393 1397 1401 1405 1408 1411 1413 1415 1416 1417 1418 1419 1419 1418 1418 1417 1416 1414 1412 1410 1408
1301 1302 1304 1306 1308 1311 1314 1317 1320 1324 1328 1332 1337 1341 1346 1351 1355 1360 1366 1372 1378 1383 1388 1392 1396 1400 1403 1406 1408 1410 1412 1413 1414 1415 1415 1415 1414 1413 1412 1411 1409 1407 1405 1403
1293 1296 1298 1301 1304 1307 1309 1313 1316 1321 1325 1329 1334 1338 1343 1348 1354 1359 1364 1370 1375 1380 1385 1390 1394 1398 1401 1404 1406 1408 1409 1410 1411 1411 1411 1411 1410 1409 1407 1406 1404 1402 1400 1398
1284 1287 1291 1294 1298 1302 1305 1309 1313 1317 1322 1327 1331 1336 1341 1347 1352 1358 1363 1369 1374 1379 1383 1388 1392 1396 1399 1401 1404 1405 1406 1407 1407 1407 1407 1406 1405 1404 1403 1401 1399 1397 1395 1393
1275 1279 1284 1288 1293 1297 1301 1305 1309 1314 1319 1324 1328 1333 1339 1344 1351 1356 1361 1367 1373 1378 1383 1387 1391 1394 1397 1399 1401 1402 1403 1403 1403 1403 1402 1402 1401 1399 1398 1396 1394 1392 1390 1388
1268 1273 1278 1283 1288 1292 1297 1302 1306 1311 1316 1321 1327 1332 1337 1343 1349 1355 1361 1366 1371 1376 1381 1385 1389 1392 1394 1396 1398 1399 1399 1399 1399 1399 1398 1397 1396 1395 1393 1392 1390 1388 1385 1383
1264 1269 1273 1278 1283 1288 1294 1299 1304 1309 1314 1319 1324 1330 1335 1341 1347 1352 1359 1365 1370 1375 1380 1384 1387 1389 1392 1393 1394 1395 1395 1395 1395 1395 1394 1393 1392 1391 1389 1387 1385 1383 1381 1379
1261 1265 1270 1275 1281 1286 1291 1297 1303 1308 1314 1319 1325 1331 1336 1341 1347 1354 1359 1364 1369 1374 1378 1382 1385 1387 1389 1390 1391 1391 1392 1392 1391 1391 1390 1389 1388 1386 1385 1383 1381 1379 1376 1374
1259 1264 1269 1274 1279 1284 1290 1296 1302 1308 1314 1319 1326 1332 1338 1342 1347 1353 1359 1364 1369 1373 1376 1380 1382 1384 1386 1387 1388 1388 1388 1388 1388 1387 1386 1385 1384 1382 1381 1379 1376 1374 1372 1369
1260 1264 1269 1274 1278 1283 1289 1295 1301 1307 1313 1319 1326 1332 1338 1344 1349 1354 1359 1364 1368 1372 1375 1377 1380 1382 1383 1384 1384 1385 1385 1384 1384 1383 1382 1381 1380 1378 1376 1374 1372 1370 1367 1365
1262 1266 1271 1276 1281 1286 1291 1296 1301 1308 1313 1318 1325 1332 1339 1344 1349 1354 1359 1363 1367 1370 1373 1376 1377 1379 1380 1381 1381 1381 1381 1381 1380 1379 1378 1377 1375 1374 1372 1370 1367 1365 1362 1360